Location: *
(49.9853°N, 3.5569°E)
Time: 00:02:15
(UTC+00:00)

Cosmos 405 Rocket - Pass Details

Date: 16 December 2019
Orbit: 490 x 554 km, 81.3° (Epoch: 21 January)

Event Time Altitude Azimuth Distance (km) Brightness Sun altitude
Rises 16:31:59 0° 2° (N) 2,583 5.9 -7.3°
Reaches altitude 10° 16:34:51 10° 27° (NNE) 1,698 4.8 -7.7°
Maximum altitude 16:37:05 15° 64° (ENE) 1,406 4.2 -8.0°
Drops below altitude 10° 16:39:19 10° 101° (E) 1,700 4.8 -8.4°
Sets 16:42:10 0° 125° (SE) 2,588 6.0 -8.8°
